Time_in_sec,gx,gy,gz
1326900425.56064105,-0.00921471,0.01198043,-0.99988577
1326900425.61282706,-0.00950108,0.01195005,-0.99988346
1326900425.66150618,-0.00967738,0.01218997,-0.99987887
1326900425.71353745,-0.00856321,0.01168449,-0.99989507
1326900425.76151752,-0.00850382,0.01198212,-0.99989205
1326900425.82154679,-0.00839326,0.01191013,-0.99989385
1326900425.86260486,-0.00840018,0.01203546,-0.99989229
1326900425.91348433,-0.00854266,0.01221420,-0.99988891
1326900425.96053576,-0.00769575,0.01103048,-0.99990955
1326900426.01364756,-0.00799171,0.01112374,-0.99990619
1326900426.06154513,-0.00776846,0.01135624,-0.99990534
1326900426.11368680,-0.00788950,0.01127041,-0.99990536
1326900426.16152143,-0.00819663,0.01173633,-0.99989753
1326900426.21264648,-0.00845399,0.01129467,-0.99990048
1326900426.26067901,-0.00849782,0.01170125,-0.99989543
1326900426.31348276,-0.00856555,0.01166443,-0.99989528
1326900426.36131430,-0.00881932,0.01164058,-0.99989335
1326900426.41253281,-0.00918214,0.01200967,-0.99988572
1326900426.46368814,-0.00901880,0.01088061,-0.99990013
1326900426.51262736,-0.00906122,0.01092057,-0.99989931
1326900426.56152964,-0.00905537,0.01114911,-0.99989684
1326900426.61264825,-0.00902679,0.01102936,-0.99989843
1326900426.66143060,-0.00914680,0.01115068,-0.99989599
1326900426.71586061,-0.00812644,0.01024460,-0.99991450
1326900426.76152444,-0.00821939,0.01031085,-0.99991306
1326900426.81301165,-0.00822744,0.01055157,-0.99991048
1326900426.86157370,-0.00810616,0.01075210,-0.99990934
1326900426.91247773,-0.00796984,0.01096360,-0.99990814
1326900426.96048260,-0.00710673,0.01006440,-0.99992410
1326900427.01327801,-0.00708694,0.01022255,-0.99992263
1326900427.06056762,-0.00714229,0.01041097,-0.99992030
1326900427.11348510,-0.00696915,0.01064983,-0.99991900
1326900427.16051340,-0.00696733,0.01084046,-0.99991697
1326900427.21311283,-0.00554364,0.00967940,-0.99993779
1326900427.26950836,-0.00531480,0.00967116,-0.99993911
1326900427.31317067,-0.00559052,0.00991024,-0.99993526
1326900427.36153340,-0.00578982,0.00980972,-0.99993512
1326900427.41268873,-0.00561339,0.00981434,-0.99993608
1326900427.46061921,-0.00477281,0.00897657,-0.99994832
1326900427.51348233,-0.00457265,0.00897414,-0.99994928
1326900427.56136918,-0.00455393,0.00889649,-0.99995006
1326900427.61316442,-0.00460115,0.00873232,-0.99995129
1326900427.66114736,-0.00478607,0.00912019,-0.99994696
1326900427.71359515,-0.00404519,0.00821274,-0.99995809
1326900427.76155066,-0.00402582,0.00833540,-0.99995716
1326900427.81350756,-0.00397222,0.00852801,-0.99995575
1326900427.86057544,-0.00378069,0.00867049,-0.99995526
1326900427.91380692,-0.00377399,0.00895801,-0.99995275
1326900427.96065164,-0.00349831,0.00812168,-0.99996090
1326900428.01352668,-0.00347287,0.00817740,-0.99996053
1326900428.06150055,-0.00333534,0.00820002,-0.99996082
1326900428.11263084,-0.00349047,0.00818187,-0.99996044
1326900428.16152883,-0.00329383,0.00821611,-0.99996082
1326900428.21273208,-0.00238947,0.00764039,-0.99996796
1326900428.26066351,-0.00253452,0.00764378,-0.99996757
1326900428.31348419,-0.00256800,0.00779322,-0.99996634
1326900428.36064672,-0.00253085,0.00780422,-0.99996634
1326900428.41252661,-0.00271908,0.00780890,-0.99996581
1326900428.46152782,-0.00196333,0.00751872,-0.99996981
1326900428.51365089,-0.00213179,0.00763942,-0.99996855
1326900428.56061530,-0.00202999,0.00759611,-0.99996909
1326900428.61348963,-0.00191090,0.00765877,-0.99996885
1326900428.66073513,-0.00196551,0.00768624,-0.99996853
1326900428.71348715,-0.00189297,0.00643722,-0.99997749
1326900428.76155376,-0.00183704,0.00659999,-0.99997653
1326900428.81353951,-0.00195734,0.00678520,-0.99997506
1326900428.86951327,-0.00183170,0.00666475,-0.99997611
1326900428.91299725,-0.00198395,0.00671052,-0.99997552
1326900428.96453834,-0.00187365,0.00571451,-0.99998192
1326900429.01354098,-0.00192281,0.00583184,-0.99998115
1326900429.06167340,-0.00197387,0.00589109,-0.99998070
1326900429.11351395,-0.00215698,0.00643050,-0.99997700
1326900429.16063070,-0.00218348,0.00658814,-0.99997591
1326900429.20975256,-0.00168431,0.00546530,-0.99998365
1326900429.26953959,-0.00192796,0.00530002,-0.99998410
1326900429.30964613,-0.00190600,0.00528412,-0.99998422
1326900429.36263609,-0.00187550,0.00530693,-0.99998416
1326900429.41273046,-0.00188362,0.00536127,-0.99998385
1326900429.46183014,-0.00154858,0.00441132,-0.99998907
1326900429.50954604,-0.00145022,0.00462669,-0.99998825
1326900429.56062937,-0.00159373,0.00449091,-0.99998865
1326900429.61255312,-0.00177772,0.00459089,-0.99998788
1326900429.66155291,-0.00177609,0.00478151,-0.99998699
1326900429.71356440,-0.00148912,0.00352124,-0.99999269
1326900429.76225972,-0.00132584,0.00326575,-0.99999379
1326900429.81343699,-0.00143150,0.00309844,-0.99999418
1326900429.86051273,-0.00125734,0.00323203,-0.99999399
1326900429.91350985,-0.00109965,0.00347617,-0.99999335
1326900429.96150684,-0.00156645,0.00298151,-0.99999433
1326900430.01256537,-0.00157083,0.00295859,-0.99999439
1326900430.06152511,-0.00167636,0.00294568,-0.99999426
1326900430.11254907,-0.00153688,0.00321737,-0.99999364
1326900430.16056323,-0.00148606,0.00335580,-0.99999327
1326900430.21286201,-0.00091390,0.00369346,-0.99999276
1326900430.26062107,-0.00075217,0.00361256,-0.99999319
1326900430.31051898,-0.00087293,0.00363721,-0.99999300
1326900430.36053014,-0.00078274,0.00389674,-0.99999210
1326900430.41252542,-0.00065297,0.00401142,-0.99999174
1326900430.46331429,-0.00018445,0.00312046,-0.99999511
1326900430.51352739,-0.00018241,0.00318064,-0.99999493
1326900430.56157660,-0.00008075,0.00335382,-0.99999437
1326900430.61315417,0.00006272,0.00330882,-0.99999452
1326900430.66154909,0.00012273,0.00335019,-0.99999438
1326900430.71348166,0.00042985,0.00233158,-0.99999719
1326900430.76062107,0.00031661,0.00239294,-0.99999709
1326900430.81357527,0.00010940,0.00236490,-0.99999720
1326900430.87256193,-0.00003422,0.00256794,-0.99999670
1326900430.91353250,-0.00003295,0.00272773,-0.99999628
1326900430.96156049,0.00165175,0.00162973,-0.99999731
1326900431.01296616,0.00168787,0.00174941,-0.99999705
1326900431.06105900,0.00155533,0.00194999,-0.99999689
1326900431.11348200,0.00157580,0.00200941,-0.99999674
1326900431.16054344,0.00176727,0.00216871,-0.99999609
1326900431.21305823,0.00253176,0.00203238,-0.99999473
1326900431.26151443,0.00250939,0.00210778,-0.99999463
1326900431.31273508,0.00266358,0.00214239,-0.99999416
1326900431.36152220,0.00260997,0.00209153,-0.99999441
1326900431.41265154,0.00264207,0.00236369,-0.99999372
1326900431.46108556,0.00258147,0.00193841,-0.99999479
1326900431.51275063,0.00262140,0.00197542,-0.99999461
1326900431.56153560,0.00222897,0.00217204,-0.99999516
1326900431.61355090,0.00228503,0.00223557,-0.99999489
1326900431.66098475,0.00226396,0.00232238,-0.99999474
1326900431.71297956,0.00183773,0.00166520,-0.99999692
1326900431.76153040,0.00177914,0.00165259,-0.99999705
1326900431.81351805,0.00160621,0.00178042,-0.99999713
1326900431.86166596,0.00151387,0.00181788,-0.99999720
1326900431.91348100,0.00151677,0.00193646,-0.99999697
1326900431.96151185,0.00110486,0.00187808,-0.99999763
1326900432.01354194,0.00115609,0.00192195,-0.99999748
1326900432.06949878,0.00131832,0.00174246,-0.99999761
1326900432.11252761,0.00115987,0.00160157,-0.99999804
1326900432.16150069,0.00102091,0.00145901,-0.99999841
1326900432.21300030,0.00066134,0.00166747,-0.99999839
1326900432.26151204,0.00068358,0.00170469,-0.99999831
1326900432.31377864,0.00071882,0.00182928,-0.99999807
1326900432.36151838,0.00074024,0.00194038,-0.99999784
1326900432.41259170,0.00056267,0.00219456,-0.99999743
1326900432.46159577,-0.00036587,0.00292779,-0.99999565
1326900432.51045942,-0.00052513,0.00301850,-0.99999531
1326900432.56152320,-0.00054405,0.00302313,-0.99999528
1326900432.60948420,-0.00046313,0.00320194,-0.99999477
1326900432.66056848,-0.00063570,0.00324872,-0.99999452
1326900432.70949125,-0.00117443,0.00350752,-0.99999316
1326900432.76118088,-0.00148650,0.00357637,-0.99999250
1326900432.80947685,-0.00167635,0.00365926,-0.99999190
1326900432.86152291,-0.00146843,0.00375940,-0.99999186
1326900432.90951061,-0.00132741,0.00416737,-0.99999044
1326900432.96454000,-0.00130867,0.00410157,-0.99999073
1326900433.01299334,-0.00152539,0.00408526,-0.99999049
1326900433.06049442,-0.00144210,0.00431809,-0.99998964
1326900433.10950947,-0.00128775,0.00443916,-0.99998932
1326900433.16133380,-0.00129082,0.00444833,-0.99998927
1326900433.21251225,-0.00209424,0.00450663,-0.99998765
1326900433.26133466,-0.00226194,0.00440866,-0.99998772
1326900433.31354499,-0.00211984,0.00434600,-0.99998831
1326900433.36154103,-0.00215530,0.00455407,-0.99998731
1326900433.41351724,-0.00228997,0.00453206,-0.99998711
1326900433.46247911,-0.00317377,0.00506429,-0.99998214
1326900433.51349020,-0.00285553,0.00542810,-0.99998119
1326900433.56237507,-0.00290786,0.00554607,-0.99998039
1326900433.61324406,-0.00277515,0.00565209,-0.99998018
1326900433.66904259,-0.00288331,0.00535201,-0.99998152
1326900433.71255898,-0.00351322,0.00583289,-0.99997682
1326900433.76151729,-0.00355050,0.00581798,-0.99997677
1326900433.81282687,-0.00354172,0.00585417,-0.99997659
1326900433.86105418,-0.00340092,0.00588889,-0.99997688
1326900433.91359234,-0.00337613,0.00597877,-0.99997643
1326900433.96107626,-0.00371774,0.00593085,-0.99997550
1326900434.01003718,-0.00374487,0.00597629,-0.99997513
1326900434.06952286,-0.00349561,0.00603502,-0.99997568
1326900434.11265492,-0.00357712,0.00598548,-0.99997569
1326900434.16150904,-0.00344103,0.00605329,-0.99997576
1326900434.21352625,-0.00374836,0.00557312,-0.99997744
1326900434.26064897,-0.00380098,0.00566821,-0.99997671
1326900434.31353617,-0.00395789,0.00577239,-0.99997551
1326900434.36063671,-0.00386732,0.00597158,-0.99997469
1326900434.41254044,-0.00410444,0.00593261,-0.99997398
1326900434.47258019,-0.00429372,0.00576318,-0.99997417
1326900434.51359177,-0.00420855,0.00596766,-0.99997334
1326900434.56152916,-0.00435598,0.00582093,-0.99997357
1326900434.61418867,-0.00472319,0.00592809,-0.99997127
1326900434.66064215,-0.00470510,0.00593617,-0.99997131
1326900434.71350074,-0.00417257,0.00559281,-0.99997565
1326900434.76148176,-0.00438041,0.00555897,-0.99997495
1326900434.81252623,-0.00447812,0.00541957,-0.99997529
1326900434.86156392,-0.00460599,0.00555645,-0.99997396
1326900434.91254687,-0.00455667,0.00545587,-0.99997473
1326900434.96056437,-0.00397295,0.00526625,-0.99997824
1326900435.01350951,-0.00395267,0.00556315,-0.99997671
1326900435.06158042,-0.00398486,0.00558988,-0.99997644
1326900435.11351514,-0.00392531,0.00565883,-0.99997628
1326900435.16062999,-0.00412277,0.00554361,-0.99997614
1326900435.21255136,-0.00385667,0.00506181,-0.99997975
1326900435.26953387,-0.00367275,0.00491935,-0.99998116
1326900435.30956197,-0.00369200,0.00504236,-0.99998047
1326900435.36051512,-0.00378732,0.00517925,-0.99997942
1326900435.41255140,-0.00392118,0.00524031,-0.99997858
1326900435.46061063,-0.00441449,0.00523087,-0.99997657
1326900435.50952220,-0.00438772,0.00500530,-0.99997785
1326900435.56051636,-0.00448872,0.00504616,-0.99997719
1326900435.60965490,-0.00447163,0.00500726,-0.99997747
1326900435.66950393,-0.00448542,0.00512452,-0.99997681
1326900435.70969415,-0.00470160,0.00536414,-0.99997456
1326900435.76056600,-0.00471096,0.00548472,-0.99997386
1326900435.80952525,-0.00473382,0.00554913,-0.99997340
1326900435.86051273,-0.00458354,0.00547019,-0.99997453
1326900435.90949702,-0.00454487,0.00564832,-0.99997372
1326900435.96053433,-0.00499175,0.00536843,-0.99997313
1326900436.01276970,-0.00512811,0.00541820,-0.99997217
1326900436.06153297,-0.00510363,0.00552363,-0.99997172
1326900436.10953069,-0.00499626,0.00537159,-0.99997309
1326900436.16056776,-0.00506425,0.00539154,-0.99997264
1326900436.20934296,-0.00526830,0.00588097,-0.99996883
1326900436.26057029,-0.00553871,0.00583737,-0.99996762
1326900436.30952072,-0.00545066,0.00586620,-0.99996794
1326900436.36053419,-0.00544495,0.00591985,-0.99996765
1326900436.41255617,-0.00530193,0.00610118,-0.99996733
1326900436.46151185,-0.00594174,0.00587498,-0.99996509
1326900436.51309538,-0.00608238,0.00570172,-0.99996525
1326900436.56056118,-0.00602885,0.00577611,-0.99996514
1326900436.61309409,-0.00571762,0.00590990,-0.99996619
1326900436.66056848,-0.00590381,0.00612119,-0.99996384
1326900436.71348000,-0.00619334,0.00691552,-0.99995691
1326900436.76151037,-0.00638756,0.00690983,-0.99995573
1326900436.81367230,-0.00667474,0.00703892,-0.99995295
1326900436.86951780,-0.00669412,0.00723282,-0.99995144
1326900436.91265154,-0.00651507,0.00759444,-0.99994994
1326900436.96153951,-0.00727148,0.00701252,-0.99994897
1326900437.01250339,-0.00720073,0.00731811,-0.99994730
1326900437.06092644,-0.00759699,0.00748881,-0.99994310
1326900437.11269808,-0.00740712,0.00749984,-0.99994444
1326900437.16054630,-0.00743336,0.00783136,-0.99994171
1326900437.21351838,-0.00702748,0.00716303,-0.99994965
1326900437.26952958,-0.00691993,0.00729338,-0.99994946
1326900437.31253672,-0.00709852,0.00739532,-0.99994746
1326900437.36149430,-0.00695919,0.00748978,-0.99994774
1326900437.41288233,-0.00702247,0.00759171,-0.99994652
1326900437.46052527,-0.00727384,0.00753951,-0.99994512
1326900437.51351666,-0.00724278,0.00776147,-0.99994365
1326900437.56078863,-0.00713034,0.00804432,-0.99994222
1326900437.61276960,-0.00722187,0.00826767,-0.99993974
1326900437.66544414,-0.00715037,0.00823423,-0.99994053
1326900437.71351695,-0.00766227,0.00844944,-0.99993495
1326900437.76250768,-0.00756295,0.00855178,-0.99993483
1326900437.81355429,-0.00732863,0.00849466,-0.99993706
1326900437.86052060,-0.00731717,0.00867907,-0.99993556
1326900437.91357374,-0.00736571,0.00872025,-0.99993485
1326900437.96167541,-0.00784548,0.00822457,-0.99993540
1326900438.01257825,-0.00797707,0.00816169,-0.99993487
1326900438.06298614,-0.00801874,0.00828769,-0.99993350
1326900438.11268377,-0.00816761,0.00843927,-0.99993103
1326900438.16158175,-0.00809818,0.00843996,-0.99993159
1326900438.20953822,-0.00848510,0.00823093,-0.99993013
1326900438.26173615,-0.00822818,0.00832405,-0.99993150
1326900438.30950117,-0.00803378,0.00848281,-0.99993175
1326900438.36250710,-0.00818651,0.00860187,-0.99992949
1326900438.40962791,-0.00815099,0.00894077,-0.99992681
1326900438.46950126,-0.00825967,0.00913597,-0.99992415
1326900438.51050377,-0.00811657,0.00915117,-0.99992519
1326900438.56151295,-0.00826950,0.00893832,-0.99992586
1326900438.60950804,-0.00834573,0.00899225,-0.99992474
1326900438.66156983,-0.00823416,0.00925185,-0.99992330
1326900438.70948792,-0.00811865,0.00896597,-0.99992685
1326900438.76052618,-0.00814105,0.00919623,-0.99992457
1326900438.81350446,-0.00818052,0.00922042,-0.99992403
1326900438.86302114,-0.00823660,0.00932990,-0.99992255
1326900438.90949798,-0.00834994,0.00941492,-0.99992082
1326900438.96453428,-0.00798857,0.00960961,-0.99992192
1326900439.01325202,-0.00804080,0.00955734,-0.99992200
1326900439.06258488,-0.00802439,0.00919935,-0.99992549
1326900439.10953736,-0.00801693,0.00919518,-0.99992559
1326900439.16154456,-0.00806247,0.00933547,-0.99992392
1326900439.21360254,-0.00809770,0.00926387,-0.99992430
1326900439.26151729,-0.00833891,0.00942146,-0.99992085
1326900439.31340647,-0.00828414,0.00930528,-0.99992239
1326900439.36231065,-0.00841950,0.00913786,-0.99992280
1326900439.40958333,-0.00851876,0.00918997,-0.99992148
1326900439.46153617,-0.00861469,0.00877893,-0.99992436
1326900439.50950241,-0.00875957,0.00897664,-0.99992134
1326900439.56111455,-0.00874613,0.00915437,-0.99991985
1326900439.61366582,-0.00881071,0.00924241,-0.99991847
1326900439.66152954,-0.00897242,0.00906785,-0.99991863
1326900439.71253824,-0.00921467,0.00970365,-0.99991046
1326900439.76062584,-0.00920590,0.00978886,-0.99990971
1326900439.81254649,-0.00913559,0.00975660,-0.99991067
1326900439.86052895,-0.00911456,0.00987970,-0.99990965
1326900439.91352439,-0.00920548,0.00983407,-0.99990927
1326900439.96108556,-0.00929828,0.00897465,-0.99991650
1326900440.01253176,-0.00929426,0.00923085,-0.99991420
1326900440.06951571,-0.00931500,0.00937928,-0.99991263
1326900440.11365604,-0.00923108,0.00965932,-0.99991074
1326900440.16152811,-0.00915178,0.00963321,-0.99991172
1326900440.21275902,-0.00907584,0.00939828,-0.99991465
1326900440.26066685,-0.00893475,0.00952333,-0.99991473
1326900440.31349635,-0.00904933,0.00963797,-0.99991261
1326900440.36165476,-0.00925008,0.00962362,-0.99991091
1326900440.41251493,-0.00896904,0.00972509,-0.99991249
1326900440.47279096,-0.00877961,0.00961630,-0.99991522
1326900440.51260281,-0.00883957,0.00977439,-0.99991316
1326900440.56152225,-0.00886598,0.01000587,-0.99991063
1326900440.61349058,-0.00858100,0.01008467,-0.99991233
1326900440.66055012,-0.00863929,0.01015301,-0.99991114
1326900440.71349835,-0.00875568,0.01099381,-0.99990123
1326900440.76059318,-0.00898924,0.01104587,-0.99989859
1326900440.81270909,-0.00894044,0.01099827,-0.99989955
1326900440.86154723,-0.00883180,0.01104485,-0.99990000
1326900440.91268229,-0.00878793,0.01118783,-0.99989880
1326900440.96151185,-0.00920877,0.01167026,-0.99988950
1326900441.01313996,-0.00913223,0.01162355,-0.99989074
1326900441.06053829,-0.00911084,0.01180103,-0.99988886
1326900441.11353612,-0.00916901,0.01194367,-0.99988663
1326900441.16052556,-0.00874570,0.01248435,-0.99988382
1326900441.20961285,-0.00858886,0.01261592,-0.99988353
1326900441.26156354,-0.00827181,0.01264173,-0.99988588
1326900441.31262803,-0.00811188,0.01281427,-0.99988499
1326900441.36055303,-0.00814904,0.01276164,-0.99988536
1326900441.41253257,-0.00815206,0.01303979,-0.99988175
1326900441.46051741,-0.00792300,0.01308725,-0.99988297
1326900441.50955796,-0.00806474,0.01288082,-0.99988452
1326900441.56052065,-0.00816104,0.01300064,-0.99988218
1326900441.60957670,-0.00814199,0.01275390,-0.99988552
1326900441.66951871,-0.00802822,0.01288834,-0.99988471
1326900441.71134853,-0.00822060,0.01321927,-0.99987883
1326900441.76056600,-0.00817171,0.01316102,-0.99988000
1326900441.81290841,-0.00812262,0.01335404,-0.99987784
1326900441.86056042,-0.00842018,0.01343848,-0.99987425
1326900441.90949941,-0.00836375,0.01357460,-0.99987288
1326900441.96057439,-0.00860064,0.01321447,-0.99987570
1326900442.00968432,-0.00877202,0.01329791,-0.99987310
1326900442.05998778,-0.00875793,0.01327769,-0.99987349
1326900442.10953140,-0.00870576,0.01321388,-0.99987479
1326900442.16149306,-0.00842575,0.01258579,-0.99988530
1326900442.20949221,-0.00829058,0.01261316,-0.99988608
1326900442.26052094,-0.00804393,0.01268548,-0.99988718
1326900442.30952096,-0.00791679,0.01279315,-0.99988682
1326900442.36112905,-0.00811262,0.01269727,-0.99988648
1326900442.41352415,-0.00806144,0.01279711,-0.99988562
1326900442.46953297,-0.00711657,0.01171582,-0.99990604
1326900442.50953054,-0.00709565,0.01172358,-0.99990610
1326900442.56149387,-0.00706824,0.01173301,-0.99990618
1326900442.60954595,-0.00706766,0.01192318,-0.99990394
1326900442.66050744,-0.00570338,0.01151229,-0.99991747
1326900442.70952654,-0.00565931,0.01138103,-0.99991922
1326900442.76053429,-0.00563455,0.01130498,-0.99992022
1326900442.81194210,-0.00562819,0.01145572,-0.99991854
1326900442.86149216,-0.00569284,0.01166213,-0.99991579
1326900442.91109848,-0.00517150,0.01141088,-0.99992152
1326900442.96153474,-0.00494702,0.01137670,-0.99992305
1326900443.01296616,-0.00473692,0.01132151,-0.99992469
1326900443.06063414,-0.00448563,0.01153553,-0.99992340
1326900443.11351538,-0.00457186,0.01169947,-0.99992111
1326900443.16054273,-0.00408778,0.01130361,-0.99992776
1326900443.21356273,-0.00405262,0.01140392,-0.99992676
1326900443.26097083,-0.00385788,0.01148139,-0.99992664
1326900443.31254220,-0.00383355,0.01145254,-0.99992707
1326900443.36592889,-0.00384588,0.01169476,-0.99992422
1326900443.41348243,-0.00355469,0.01023646,-0.99994129
1326900443.46049809,-0.00337408,0.01014914,-0.99994280
